DECAYED

SCOUT X-4 DEB, 724 (Decayed)

Orbit data source: Space-Track

SCOUT X-4 DEB, 724 was space debris in LEO originally from a launch on Thu, 19 Dec 1963 UTC launched from the Air Force Western Test Range (AFWTR). Debris objects in space refer to the collection of defunct objects orbiting the Earth. Examples of debris include non-operational satellites, rocket bodies, and fragments generated from explosions, collisions, or faulty payload assembly.

Not visible in the next 10 days
Identifier
724, 1963-053E
Orbit
Decayed
Last TLE update
3 weeks ago
Origin
Manufacturer
Unknown
Mission
Decayed spacecraft
Bus & Motor
Unknown
Mass
Unknown
Launch date (UTC)
1963-12-19 (62 years ago)
Launch vehicle
Unknown
Launch site
Air Force Western Test Range (AFWTR)
Object type
Payload
Rocket body
Debris
Shape & HBR
Unknown
Radar Cross Section
Small (<0.1 m²)

Expand to show TLE details & history

TLE from 3 weeks ago
0 SCOUT X-4 DEB
1 00724U 63053E   25151.27681807  .06358488  87568-1  17146-1 0  9990
2 00724  78.5223 237.1773 0025948 325.6876  34.2709 15.99757610964056
Epoch: 2025-05-31T06:38Z
TLE epoch observation values (Epoch: 2025-05-31T06:38:37.081Z)
Latitude
-0.00003°
Longitude
-111.49673°
Altitude
263.88 km
Speed
7.757 km/s
True Right ascension
15h 48m 42s
True Declination
0° 00' 00"
Sunlit
Object was in full shadow at epoch
Visualization orbit readout
Visualization observer readout
Orbital elements
Apogee altitude
289.435 km
Perigee altitude
254.923 km
Semi-major axis
6,650.316 km
Eccentricity
0.00259
Inclination
78.5223°
RAAN
237.1773°
Arg. of periapsis
325.6876°
True anomaly
Unknown
Mean anomaly
34.2709°
Eccentric anomaly
Unknown
Mean motion
4.00202 °/min
Orbital period
89.95 mins
BSTAR
0.017146
Loading maneuver chart data...
Loading SW <> Apogee altitude chart data...
Loading historical data...
Loading historical data...
Loading historical data...
Loading historical data...
Loading historical data...
Loading historical data...
Loading historical data...

SCOUT X-4 DEB Visibility

Observer location: undefined°, undefined°

This satellite is decayed
Span
Click to sort rows by Start time (UTC) header in descending order
Start Az.
Max El. time (UTC)
Max El. Az.
Max El.
End time (UTC)
End Az.
|